When you browse on this site, cookies collect data to enhance your experience and personalize the content and advertising you see.
Visit our Privacy Policy to learn more. By continuing to use the site, you agree to this use of cookies and data.
  • In Romania
  • List of Countries
  • For 7 days
  • Water Temperature
  • Weather Map
  • Weather Widgets
  • user-avatar
    Login

    Hourly Weather Ballycastle

    Today, 7 December, Saturday

    Time Temperature Precipitation Wind Pressure Humidity
    00:00 +6°C° 0 mm 8 mps 750 mmHg 90%
    01:00 +7°C° 0.1 mm 8 mps 750 mmHg 89%
    02:00 +7°C° 0.1 mm 8 mps 750 mmHg 88%
    03:00 +7°C° 0.1 mm 8 mps 751 mmHg 88%
    04:00 +8°C° 0 mm 7 mps 751 mmHg 88%
    05:00 +8°C° 0 mm 7 mps 751 mmHg 88%
    06:00 +6°C° 0 mm 7 mps 751 mmHg 89%
    07:00 +6°C° 0 mm 7 mps 751 mmHg 90%
    08:00 +7°C° 0 mm 6 mps 750 mmHg 91%
    09:00 +7°C° 0 mm 6 mps 750 mmHg 93%
    10:00 +6°C° 0 mm 7 mps 749 mmHg 92%
    11:00 +7°C° 0 mm 8 mps 749 mmHg 92%
    12:00 +9°C° 0 mm 8 mps 748 mmHg 92%
    13:00 +9°C° 0 mm 8 mps 747 mmHg 91%
    14:00 +10°C° 0 mm 9 mps 746 mmHg 90%
    15:00 +11°C° 0 mm 9 mps 745 mmHg 89%
    16:00 +10°C° 0 mm 9 mps 744 mmHg 89%
    17:00 +10°C° 0 mm 8 mps 743 mmHg 89%
    18:00 +10°C° 0 mm 8 mps 743 mmHg 89%
    19:00 +9°C° 0.5 mm 10 mps 741 mmHg 89%
    20:00 +9°C° 0.5 mm 11 mps 739 mmHg 90%
    21:00 +9°C° 0.5 mm 12 mps 737 mmHg 90%
    22:00 +9°C° 0.8 mm 12 mps 737 mmHg 88%
    23:00 +8°C° 0.8 mm 13 mps 737 mmHg 85%

    Tomorrow, 8 December, Sunday

    Time Temperature Precipitation Wind Pressure Humidity
    00:00 +6°C° 0.8 mm 14 mps 737 mmHg 83%
    01:00 +5°C° 0.1 mm 14 mps 737 mmHg 80%
    02:00 +5°C° 0.1 mm 13 mps 737 mmHg 77%
    03:00 +4°C° 0.1 mm 13 mps 738 mmHg 75%
    04:00 +4°C° 0.2 mm 13 mps 738 mmHg 75%
    05:00 +4°C° 0.2 mm 13 mps 737 mmHg 76%
    06:00 +3°C° 0.2 mm 13 mps 737 mmHg 77%
    07:00 +3°C° 0.2 mm 13 mps 737 mmHg 78%
    08:00 +3°C° 0.2 mm 13 mps 737 mmHg 78%
    09:00 +3°C° 0.2 mm 13 mps 736 mmHg 79%
    10:00 +3°C° 0.2 mm 14 mps 736 mmHg 79%
    11:00 +3°C° 0.2 mm 14 mps 735 mmHg 79%
    12:00 +3°C° 0.2 mm 14 mps 734 mmHg 79%
    13:00 +3°C° 0.3 mm 14 mps 734 mmHg 80%
    14:00 +3°C° 0.3 mm 14 mps 733 mmHg 81%
    15:00 +3°C° 0.3 mm 14 mps 732 mmHg 81%
    16:00 +2°C° 0.8 mm 11 mps 731 mmHg 86%
    17:00 +1°C° 0.8 mm 9 mps 731 mmHg 91%
    18:00 +1°C° 0.8 mm 6 mps 730 mmHg 96%
    19:00 +2°C° 0.5 mm 9 mps 731 mmHg 89%
    20:00 +3°C° 0.5 mm 11 mps 732 mmHg 82%
    21:00 +4°C° 0.5 mm 13 mps 733 mmHg 76%
    22:00 +4°C° 0.2 mm 14 mps 735 mmHg 75%
    23:00 +4°C° 0.2 mm 15 mps 737 mmHg 75%

    Day after tomorrow, 9 December, Monday

    Time Temperature Precipitation Wind Pressure Humidity
    00:00 +5°C° 0.2 mm 17 mps 739 mmHg 74%
    01:00 +3°C° 0 mm 17 mps 741 mmHg 72%
    02:00 +3°C° 0 mm 17 mps 743 mmHg 71%
    03:00 +3°C° 0 mm 17 mps 745 mmHg 69%
    04:00 +3°C° 0 mm 17 mps 746 mmHg 69%
    05:00 +4°C° 0 mm 16 mps 748 mmHg 69%
    06:00 +4°C° 0 mm 15 mps 750 mmHg 69%
    07:00 +3°C° 0 mm 14 mps 751 mmHg 68%
    08:00 +3°C° 0 mm 13 mps 753 mmHg 68%
    09:00 +3°C° 0 mm 12 mps 754 mmHg 68%
    10:00 +3°C° 0 mm 10 mps 756 mmHg 68%
    11:00 +3°C° 0 mm 9 mps 757 mmHg 69%
    12:00 +5°C° 0 mm 7 mps 758 mmHg 69%
    13:00 +4°C° 0 mm 6 mps 758 mmHg 71%
    14:00 +5°C° 0 mm 5 mps 759 mmHg 74%
    15:00 +5°C° 0 mm 4 mps 759 mmHg 76%
    16:00 +4°C° 0 mm 4 mps 759 mmHg 78%
    17:00 +4°C° 0 mm 4 mps 759 mmHg 80%
    18:00 +4°C° 0 mm 4 mps 759 mmHg 82%
    19:00 +3°C° 0 mm 5 mps 759 mmHg 85%
    20:00 +3°C° 0 mm 5 mps 759 mmHg 87%
    21:00 +3°C° 0 mm 6 mps 758 mmHg 90%
    22:00 +3°C° 0 mm 7 mps 757 mmHg 89%
    23:00 +2°C° 0 mm 8 mps 756 mmHg 87%

    10 December, Tuesday

    Time Temperature Precipitation Wind Pressure Humidity
    00:00 +3°C° 0 mm 9 mps 755 mmHg 86%
    01:00 +3°C° 0 mm 10 mps 754 mmHg 86%
    02:00 +3°C° 0 mm 12 mps 752 mmHg 86%
    03:00 +4°C° 0 mm 13 mps 751 mmHg 86%
    04:00 +4°C° 0.7 mm 13 mps 748 mmHg 87%
    05:00 +5°C° 0.7 mm 14 mps 746 mmHg 89%
    06:00 +6°C° 0.7 mm 14 mps 743 mmHg 90%
    07:00 +8°C° 0.9 mm 13 mps 741 mmHg 90%
    08:00 +9°C° 0.9 mm 13 mps 739 mmHg 90%
    09:00 +10°C° 0.9 mm 12 mps 737 mmHg 90%
    10:00 +10°C° 1.2 mm 13 mps 737 mmHg 90%
    11:00 +9°C° 1.2 mm 14 mps 736 mmHg 90%
    12:00 +9°C° 1.2 mm 14 mps 736 mmHg 91%
    13:00 +7°C° 0.9 mm 13 mps 737 mmHg 90%
    14:00 +4°C° 0.9 mm 13 mps 738 mmHg 89%
    15:00 +2°C° 0.9 mm 12 mps 738 mmHg 88%
    16:00 +2°C° 0.2 mm 12 mps 739 mmHg 85%
    17:00 +2°C° 0.2 mm 12 mps 740 mmHg 81%
    18:00 +3°C° 0.2 mm 12 mps 740 mmHg 78%
    19:00 +3°C° 0.2 mm 12 mps 741 mmHg 77%
    20:00 +2°C° 0.2 mm 12 mps 742 mmHg 76%
    21:00 +2°C° 0.2 mm 12 mps 742 mmHg 75%
    22:00 +2°C° 0.2 mm 12 mps 743 mmHg 75%
    23:00 +2°C° 0.2 mm 12 mps 743 mmHg 75%

    11 December, Wednesday

    Time Temperature Precipitation Wind Pressure Humidity
    00:00 +1°C° 0.2 mm 11 mps 744 mmHg 76%
    01:00 +1°C° 0.1 mm 11 mps 744 mmHg 77%
    02:00 +1°C° 0.1 mm 10 mps 744 mmHg 78%
    03:00 +1°C° 0.1 mm 10 mps 744 mmHg 79%
    04:00 +1°C° 0.1 mm 10 mps 743 mmHg 82%
    05:00 0°C° 0.1 mm 10 mps 743 mmHg 86%
    06:00 0°C° 0.1 mm 10 mps 742 mmHg 89%
    07:00 +1°C° 0.2 mm 10 mps 742 mmHg 86%
    08:00 +1°C° 0.2 mm 10 mps 742 mmHg 83%
    09:00 +1°C° 0.2 mm 10 mps 742 mmHg 80%
    10:00 +1°C° 0.2 mm 10 mps 742 mmHg 78%
    11:00 +2°C° 0.2 mm 10 mps 742 mmHg 76%
    12:00 +2°C° 0.2 mm 10 mps 742 mmHg 74%
    13:00 +2°C° 0.2 mm 10 mps 742 mmHg 74%
    14:00 +2°C° 0.2 mm 10 mps 742 mmHg 74%
    15:00 +2°C° 0.2 mm 11 mps 742 mmHg 73%
    16:00 +1°C° 0.2 mm 11 mps 742 mmHg 75%
    17:00 +1°C° 0.2 mm 11 mps 742 mmHg 76%
    18:00 +1°C° 0.2 mm 11 mps 742 mmHg 77%
    19:00 +1°C° 0.2 mm 10 mps 742 mmHg 79%
    20:00 +1°C° 0.2 mm 10 mps 742 mmHg 80%
    21:00 +1°C° 0.2 mm 10 mps 743 mmHg 82%
    22:00 +1°C° 0.2 mm 10 mps 742 mmHg 86%
    23:00 +1°C° 0.2 mm 10 mps 742 mmHg 90%

    12 December, Thursday

    Time Temperature Precipitation Wind Pressure Humidity
    00:00 +1°C° 0.2 mm 9 mps 741 mmHg 94%
    01:00 +1°C° 0.8 mm 9 mps 740 mmHg 94%
    02:00 +2°C° 0.8 mm 8 mps 739 mmHg 93%
    03:00 +3°C° 0.8 mm 7 mps 739 mmHg 93%
    04:00 +4°C° 0.6 mm 7 mps 738 mmHg 93%
    05:00 +4°C° 0.6 mm 7 mps 737 mmHg 94%
    06:00 +5°C° 0.6 mm 7 mps 736 mmHg 94%
    07:00 +5°C° 1 mm 6 mps 735 mmHg 94%
    08:00 +5°C° 1 mm 6 mps 734 mmHg 94%
    09:00 +7°C° 1 mm 6 mps 734 mmHg 95%
    10:00 +6°C° 0.3 mm 7 mps 734 mmHg 93%
    11:00 +8°C° 0.3 mm 7 mps 733 mmHg 91%
    12:00 +7°C° 0.3 mm 8 mps 733 mmHg 90%
    13:00 +7°C° 0.1 mm 9 mps 733 mmHg 89%
    14:00 +7°C° 0.1 mm 9 mps 733 mmHg 87%
    15:00 +7°C° 0.1 mm 9 mps 733 mmHg 86%
    16:00 +6°C° 0.2 mm 9 mps 733 mmHg 87%
    17:00 +6°C° 0.2 mm 9 mps 732 mmHg 88%
    18:00 +5°C° 0.2 mm 8 mps 732 mmHg 88%
    19:00 +5°C° 0.2 mm 8 mps 732 mmHg 89%
    20:00 +5°C° 0.2 mm 8 mps 731 mmHg 90%
    21:00 +5°C° 0.2 mm 7 mps 730 mmHg 91%
    22:00 +5°C° 1.4 mm 10 mps 730 mmHg 87%
    23:00 +4°C° 1.4 mm 13 mps 729 mmHg 83%
    Show more